Date,TemperatureHighF,TemperatureAvgF,TemperatureLowF,DewpointHighF,DewpointAvgF,DewpointLowF,HumidityHigh,HumidityAvg,HumidityLow,PressureMaxIn,PressureMinIn,WindSpeedMaxMPH,WindSpeedAvgMPH,GustSpeedMaxMPH,PrecipitationSumIn
2013-2-3,26.3,21.0,10.2,13.5,11.0,7.4,89,66,48,29.99,29.78,4,0,7,0.01
2013-2-4,25.0,19.1,15.2,12.9,5.9,-1.8,80,58,34,29.95,29.77,10,2,14,0.00
2013-2-5,26.4,17.2,6.3,12.9,6.8,2.7,87,65,40,30.05,29.92,2,0,6,0.00
2013-2-6,34.6,25.2,15.6,23.7,11.2,-6.4,89,59,24,30.37,29.91,7,2,14,0.00
2013-2-7,19.4,13.8,6.9,3.6,-1.3,-4.8,62,51,37,30.58,30.36,7,3,10,0.00
2013-2-8,28.5,23.4,13.8,22.2,15.2,2.1,90,72,39,30.44,29.85,12,5,22,0.00
2013-2-9,21.1,11.7,3.5,18.8,3.6,-5.4,92,71,47,30.39,29.86,14,7,21,0.00
2013-2-10,26.9,13.4,-0.6,6.7,-0.0,-5.9,82,57,28,30.55,30.32,2,0,19,0.07
2013-2-11,46.5,32.6,14.8,39.2,26.9,4.5,96,80,44,30.32,29.66,7,1,8,0.04
2013-2-12,37.2,34.4,31.2,31.2,27.1,23.6,89,75,67,29.89,29.67,6,3,10,0.00
2013-2-13,31.0,30.1,29.7,25.0,24.8,24.0,82,80,75,29.88,29.87,3,1,3,0.00
2013-2-18,22.4,19.3,16.7,6.4,4.8,2.2,58,53,41,30.19,30.16,2,0,5,0.00
2013-2-19,46.0,29.1,15.6,34.3,19.3,3.5,98,69,35,30.18,29.63,11,2,16,0.23
2013-2-20,32.9,25.8,22.1,32.4,19.1,14.1,98,76,63,29.84,29.62,6,2,10,0.01
2013-2-21,24.4,19.3,14.1,15.5,9.4,2.6,82,65,49,30.41,29.84,8,3,14,0.00
2013-2-22,34.4,27.0,19.4,25.9,20.3,14.5,89,77,59,30.45,30.26,6,1,7,0.01
2013-2-23,35.5,33.7,30.6,31.7,28.0,22.6,98,80,64,30.26,29.90,9,3,12,0.03
2013-2-24,35.3,32.4,30.1,34.8,32.1,29.9,100,99,97,29.97,29.78,6,1,9,0.16
2013-2-25,36.5,31.3,27.5,31.7,29.1,27.0,99,92,74,30.26,29.97,2,0,5,0.12
2013-2-26,42.8,34.2,26.7,34.0,27.6,22.1,98,79,52,30.33,30.08,10,2,16,0.00
2013-2-27,42.1,36.8,32.1,34.5,30.2,23.2,96,77,61,30.07,29.56,9,4,21,0.38
2013-2-28,43.2,36.7,32.2,34.9,31.3,27.5,92,81,63,29.63,29.57,5,0,6,0.00